ZL1TQN Weather Reports


Display with metric or nautical units.
time (UTC)temp
F
wind
direction
speed
MPH
gust
MPH
rain 1hr
in
rain 24hr
in
rain mn
in
humidity
%
barometer
mb
20260502234506 62 188 1.0 3.0 0.00 0.00 0.00 69 1034.9
20260502233506 61 184 2.0 3.0 0.00 0.00 0.00 71 1035.0
20260502233006 61 162 2.0 3.0 0.00 0.00 0.00 71 1035.0
20260502232505 62 158 1.0 3.0 0.00 0.00 0.00 71 1035.0
20260502232005 62 203 1.0 3.0 0.00 0.00 0.00 72 1035.0
20260502231005 62 242 2.0 6.0 0.00 0.00 0.00 73 1035.0
20260502225505 61 243 2.0 5.0 0.00 0.00 0.00 75 1035.2
20260502224005 61 222 2.0 3.0 0.00 0.00 0.00 72 1035.1
20260502223505 61 268 2.0 3.0 0.00 0.00 0.00 71 1035.2
20260502222505 61 184 2.0 3.0 0.00 0.00 0.00 72 1035.2
20260502222005 61 268 2.0 3.0 0.00 0.00 0.00 71 1035.2
20260502221505 61 256 2.0 3.0 0.00 0.00 0.00 74 1035.2
20260502221006 61 259 2.0 3.0 0.00 0.00 0.00 75 1035.1
20260502220006 60 230 1.0 2.0 0.00 0.00 0.00 76 1035.2
20260502215005 59 183 2.0 3.0 0.00 0.00 0.00 78 1035.3
20260502214505 58 171 2.0 3.0 0.00 0.00 0.00 78 1035.3
20260502214006 58 118 2.0 3.0 0.00 0.00 0.00 79 1035.4
20260502213506 58 202 2.0 3.0 0.00 0.00 0.00 80 1035.4
20260502213005 58 170 2.0 3.0 0.00 0.00 0.00 80 1035.3
20260502212505 57 194 1.0 3.0 0.00 0.00 0.00 82 1035.3
20260502211505 56 170 2.0 5.0 0.00 0.00 0.00 83 1035.4
20260502211006 56 196 2.0 3.0 0.00 0.00 0.00 84 1035.4
20260502210006 55 177 2.0 6.0 0.00 0.00 0.00 85 1035.5
20260502205505 55 155 2.0 6.0 0.00 0.00 0.00 86 1035.5
20260502205005 54 168 1.0 3.0 0.00 0.00 0.00 87 1035.5
20260502204005 53 163 2.0 6.0 0.00 0.00 0.00 88 1035.5
20260502203005 52 163 2.0 6.0 0.00 0.00 0.00 89 1035.5
20260502202505 51 110 2.0 6.0 0.00 0.00 0.00 90 1035.5
20260502202006 51 139 2.0 5.0 0.00 0.00 0.00 91 1035.4
20260502201505 50 163 3.0 6.0 0.00 0.00 0.00 91 1035.3
20260502201005 50 132 3.0 6.0 0.00 0.00 0.00 92 1035.3
20260502195505 48 141 2.0 3.0 0.00 0.00 0.00 94 1035.2
20260502194505 48 144 2.0 5.0 0.00 0.00 0.00 95 1035.1
20260502194005 47 124 2.0 5.0 0.00 0.00 0.00 95 1035.1
20260502193505 47 123 2.0 5.0 0.00 0.00 0.00 95 1035.1
20260502193005 47 117 2.0 5.0 0.00 0.00 0.00 95 1035.1
20260502192005 46 140 1.0 3.0 0.00 0.00 0.00 95 1035.0
20260502191505 46 149 1.0 2.0 0.00 0.00 0.00 94 1035.0
20260502191005 46 139 1.0 2.0 0.00 0.00 0.00 94 1035.0
20260502190005 46 125 0.0 1.0 0.00 0.00 0.00 94 1035.0
20260502185005 46 125 1.0 1.0 0.00 0.00 0.00 94 1034.9
20260502184505 46 180 0.0 1.0 0.00 0.00 0.00 94 1035.0
20260502184005 46 106 0.0 1.0 0.00 0.00 0.00 94 1034.9
20260502183005 46 90 1.0 2.0 0.00 0.00 0.00 94 1034.8
20260502182505 46 90 1.0 2.0 0.00 0.00 0.00 94 1034.7
20260502182005 46 90 1.0 2.0 0.00 0.00 0.00 94 1034.7
20260502164005 47 87 1.0 2.0 0.00 0.00 0.00 93 1034.5
20260502163506 47 95 1.0 2.0 0.00 0.00 0.00 94 1034.5
20260502163005 47 86 1.0 2.0 0.00 0.00 0.00 94 1034.5
20260502162006 47 113 0.0 2.0 0.00 0.00 0.00 93 1034.5
20260502161505 47 77 1.0 2.0 0.00 0.00 0.00 93 1034.5
20260502161005 46 107 1.0 2.0 0.00 0.00 0.00 93 1034.4
20260502152005 47 121 0.0 2.0 0.00 0.00 0.00 91 1034.6
20260502151505 47 77 1.0 3.0 0.00 0.00 0.00 92 1034.6
20260502151005 47 112 2.0 3.0 0.00 0.00 0.00 92 1034.5
20260502123504 46 143 1.0 2.0 0.00 0.00 0.00 90 1034.9
20260502123005 46 144 1.0 2.0 0.00 0.00 0.00 90 1034.9
20260502122505 46 138 1.0 3.0 0.00 0.00 0.00 90 1034.9
20260502121505 46 143 2.0 3.0 0.00 0.00 0.00 90 1034.9
20260502121005 46 139 2.0 3.0 0.00 0.00 0.00 90 1034.8
20260502115505 46 143 2.0 3.0 0.00 0.00 0.00 90 1034.6
20260502115005 46 144 2.0 3.0 0.00 0.00 0.00 90 1034.6
20260502114004 46 141 2.0 3.0 0.00 0.00 0.00 90 1034.6
20260502113505 46 148 2.0 3.0 0.00 0.00 0.00 90 1034.7
20260502113005 47 146 2.0 3.0 0.00 0.00 0.00 89 1034.7
20260502112004 47 144 2.0 3.0 0.00 0.00 0.00 89 1034.7
20260502111505 47 147 2.0 3.0 0.00 0.00 0.00 90 1034.7
20260502111005 47 146 2.0 3.0 0.00 0.00 0.00 89 1034.6
20260502110005 47 152 3.0 5.0 0.00 0.00 0.00 90 1034.7
20260502105505 47 149 3.0 3.0 0.00 0.00 0.00 90 1034.7
20260502105004 47 141 2.0 3.0 0.00 0.00 0.00 90 1034.7
20260502104505 47 142 3.0 3.0 0.00 0.00 0.00 90 1034.7
20260502104005 47 141 3.0 3.0 0.00 0.00 0.00 90 1034.7
20260502103505 46 136 1.0 3.0 0.00 0.00 0.00 90 1034.7
20260502103005 47 135 2.0 3.0 0.00 0.00 0.00 90 1034.6
20260502102505 47 139 2.0 3.0 0.00 0.00 0.00 89 1034.5
20260502102005 47 139 2.0 3.0 0.00 0.00 0.00 89 1034.5
20260502101504 47 142 2.0 3.0 0.00 0.00 0.00 89 1034.4
20260502101005 47 135 2.0 3.0 0.00 0.00 0.00 89 1034.4
20260502091505 48 139 0.0 0.0 0.00 0.00 0.00 89 1034.2
20260502071506 50 147 0.0 0.0 0.00 0.00 0.00 85 1033.9
20260502071006 50 147 0.0 0.0 0.00 0.00 0.00 85 1033.8
20260502070006 51 146 0.0 0.0 0.00 0.00 0.00 84 1033.7
20260502065506 51 144 0.0 0.0 0.00 0.00 0.00 83 1033.7
20260502065006 52 138 0.0 0.0 0.00 0.00 0.00 83 1033.7
20260502064006 52 141 0.0 0.0 0.00 0.00 0.00 81 1033.5
20260502063506 53 141 0.0 0.0 0.00 0.00 0.00 80 1033.5
20260502063006 53 141 0.0 0.0 0.00 0.00 0.00 80 1033.5
20260502062006 54 150 0.0 0.0 0.00 0.00 0.00 80 1033.5
20260502061506 54 147 0.0 0.0 0.00 0.00 0.00 80 1033.4
20260502061006 54 147 0.0 0.0 0.00 0.00 0.00 80 1033.4
20260502060006 54 146 0.0 0.0 0.00 0.00 0.00 80 1033.2
20260502055006 55 156 0.0 0.0 0.00 0.00 0.00 77 1033.1
20260502054506 56 157 0.0 0.0 0.00 0.00 0.00 76 1033.0
20260502054006 57 157 0.0 0.0 0.00 0.00 0.00 75 1032.9
20260502053507 57 158 0.0 0.0 0.00 0.00 0.00 74 1032.9
20260502053007 58 321 0.0 0.0 0.00 0.00 0.00 72 1032.9
20260502052505 59 321 0.0 0.0 0.00 0.00 0.00 71 1032.9
20260502052006 59 321 0.0 0.0 0.00 0.00 0.00 69 1032.9
20260502051506 60 321 0.0 0.0 0.00 0.00 0.00 69 1032.9
20260502051005 60 321 0.0 0.0 0.00 0.00 0.00 70 1032.9
20260502045006 62 323 0.0 0.0 0.00 0.00 0.00 68 1032.9
20260502044507 62 319 0.0 0.0 0.00 0.00 0.00 66 1032.9
20260502044005 62 323 0.0 3.0 0.00 0.00 0.00 66 1032.9
20260502043506 62 327 0.0 3.0 0.00 0.00 0.00 65 1032.9
20260502043005 63 309 2.0 3.0 0.00 0.00 0.00 63 1032.9
20260502042506 63 298 1.0 3.0 0.00 0.00 0.00 64 1032.9
20260502042005 63 310 1.0 3.0 0.00 0.00 0.00 63 1032.9
20260502040005 63 353 1.0 3.0 0.00 0.00 0.00 62 1032.9
20260502035506 63 5 2.0 3.0 0.00 0.00 0.00 63 1032.9
20260502035006 63 334 2.0 3.0 0.00 0.00 0.00 61 1032.9
20260502034506 64 0 2.0 3.0 0.00 0.00 0.00 62 1032.9
20260502033505 64 353 1.0 5.0 0.00 0.00 0.00 61 1032.9
20260502033005 64 316 2.0 5.0 0.00 0.00 0.00 61 1032.9
20260502032506 64 316 3.0 5.0 0.00 0.00 0.00 61 1032.9
20260502032006 64 349 1.0 5.0 0.00 0.00 0.00 61 1032.9
20260502031505 64 303 2.0 5.0 0.00 0.00 0.00 60 1032.9
20260502031006 64 305 3.0 5.0 0.00 0.00 0.00 60 1033.0
20260502030006 64 340 1.0 3.0 0.00 0.00 0.00 59 1032.9
20260502025505 64 353 2.0 6.0 0.00 0.00 0.00 60 1033.0
20260502025005 64 332 2.0 7.0 0.00 0.00 0.00 62 1033.2
20260502024506 64 280 3.0 7.0 0.00 0.00 0.00 60 1033.2
20260502024006 65 312 3.0 6.0 0.00 0.00 0.00 59 1033.3
20260502023006 65 348 1.0 5.0 0.00 0.00 0.00 61 1033.3
20260502022506 65 10 2.0 5.0 0.00 0.00 0.00 59 1033.3
20260502022006 65 315 2.0 5.0 0.00 0.00 0.00 60 1033.4
20260502021506 65 67 2.0 6.0 0.00 0.00 0.00 60 1033.4
20260502021006 65 55 3.0 6.0 0.00 0.00 0.00 60 1033.4
20260502020005 64 331 2.0 6.0 0.00 0.00 0.00 61 1033.5
20260502015506 64 350 3.0 6.0 0.00 0.00 0.00 58 1033.6
20260502015005 65 355 2.0 5.0 0.00 0.00 0.00 62 1033.6
20260502014505 64 27 0.0 3.0 0.00 0.00 0.00 62 1033.8
20260502014006 64 12 1.0 3.0 0.00 0.00 0.00 61 1033.8
20260502013506 64 42 2.0 3.0 0.00 0.00 0.00 60 1033.8
20260502012005 65 333 2.0 3.0 0.00 0.00 0.00 55 1033.8
20260502011506 65 241 0.0 2.0 0.00 0.00 0.00 57 1033.9
20260502011006 64 349 0.0 3.0 0.00 0.00 0.00 58 1033.9
20260502010006 64 145 1.0 5.0 0.00 0.00 0.00 56 1034.1
20260502005506 64 197 2.0 7.0 0.00 0.00 0.00 57 1034.2
20260502005006 64 229 2.0 7.0 0.00 0.00 0.00 58 1034.2
20260502004506 64 308 2.0 5.0 0.00 0.00 0.00 58 1034.3
20260502004005 64 259 1.0 3.0 0.00 0.00 0.00 57 1034.4
20260502002505 63 281 3.0 5.0 0.00 0.00 0.00 57 1034.7
20260502002005 63 72 2.0 3.0 0.00 0.00 0.00 57 1034.8
20260502001505 64 292 3.0 3.0 0.00 0.00 0.00 56 1034.9
20260502001005 64 14 0.0 3.0 0.00 0.00 0.00 58 1034.9
20260502000006 63 263 2.0 5.0 0.00 0.00 0.00 59 1035.1